[TLELIST] Archives

 

[TLELIST] Current TLEs

April 25th 2023 PDT

HST 1 20580U 90037B 23114.43244670 .00015518 00000-0 84821-3 0 9991 2 20580 28.4691 265.5700 0002673 147.6393 244.9736 15.12861579613317 ISS (ZARYA) 1 25544U 98067A 23115.14034597 .00035216 00000-0 61617-3 0 9996 2 25544 51.6366 231.4311 0005968 234.1810 185.5471 15.50265567393560 CXO 1 25867U 99040B 23115.07302386 .00000813 00000-0 00000-0 0 9993 2 25867 38.1522 203.6633 9045689 256.8318 359.8784 0.37809894 12980 ...Continue Reading

[TLELIST] Current TLEs

April 25th 2023 PDT

HST 1 20580U 90037B 23114.43244670 .00015518 00000-0 84821-3 0 9991 2 20580 28.4691 265.5700 0002673 147.6393 244.9736 15.12861579613317 ISS (ZARYA) 1 25544U 98067A 23115.14034597 .00035216 00000-0 61617-3 0 9996 2 25544 51.6366 231.4311 0005968 234.1810 185.5471 15.50265567393560 CXO 1 25867U 99040B 23115.07302386 .00000813 00000-0 00000-0 0 9993 2 25867 38.1522 203.6633 9045689 256.8318 359.8784 0.37809894 12980 ...Continue Reading

[TLELIST] Current TLEs

April 24th 2023 PDT

HST 1 20580U 90037B 23113.85481035 .00006941 00000-0 37441-3 0 9990 2 20580 28.4691 269.4111 0002717 141.9513 338.4528 15.12834171613222 ISS (ZARYA) 1 25544U 98067A 23114.17389280 .00019670 00000-0 34935-3 0 9999 2 25544 51.6414 236.2188 0005920 230.0177 192.5268 15.50183767393415 CXO 1 25867U 99040B 23115.07302386 .00000813 00000-0 00000-0 0 9993 2 25867 38.1522 203.6633 9045689 256.8318 359.8784 0.37809894 12980 ...Continue Reading

[TLELIST] Current TLEs

April 23rd 2023 PDT

HST 1 20580U 90037B 23112.78268281 .00006065 00000-0 32599-3 0 9993 2 20580 28.4692 276.5399 0002783 131.1126 258.6896 15.12820233613061 ISS (ZARYA) 1 25544U 98067A 23112.77041343 .00020477 00000-0 36406-3 0 9990 2 25544 51.6408 243.1723 0006098 225.0285 280.1359 15.50125092393198 CXO 1 25867U 99040B 23115.07302386 .00000813 00000-0 00000-0 0 9993 2 25867 38.1522 203.6633 9045689 256.8318 359.8784 0.37809894 12980 ...Continue Reading

[TLELIST] Current TLEs

April 22nd 2023 PDT

HST 1 20580U 90037B 23111.79192543 .00006055 00000-0 32555-3 0 9991 2 20580 28.4691 283.1275 0002832 120.9189 262.3599 15.12808363612912 ISS (ZARYA) 1 25544U 98067A 23112.16353009 .00019726 00000-0 35140-3 0 9997 2 25544 51.6398 246.1769 0006058 221.9747 134.2867 15.50096219393093 CXO 1 25867U 99040B 23112.42851458 .00000730 00000-0 00000+0 0 9995 2 25867 38.1893 204.0110 9044177 256.5414 359.9006 0.37809964 24126 ...Continue Reading

[TLELIST] Current TLEs

April 22nd 2023 PDT

HST 1 20580U 90037B 23111.79192543 .00006055 00000-0 32555-3 0 9991 2 20580 28.4691 283.1275 0002832 120.9189 262.3599 15.12808363612912 ISS (ZARYA) 1 25544U 98067A 23112.16353009 .00019726 00000-0 35140-3 0 9997 2 25544 51.6398 246.1769 0006058 221.9747 134.2867 15.50096219393093 CXO 1 25867U 99040B 23112.42851458 .00000730 00000-0 00000+0 0 9995 2 25867 38.1893 204.0110 9044177 256.5414 359.9006 0.37809964 24126 ...Continue Reading

[TLELIST] Current TLEs

April 21st 2023 PDT

HST 1 20580U 90037B 23110.80190485 .00006510 00000-0 35087-3 0 9994 2 20580 28.4691 289.7099 0002871 111.4560 269.3621 15.12796804612761 ISS (ZARYA) 1 25544U 98067A 23111.47001403 .00017360 00000-0 31065-3 0 9992 2 25544 51.6391 249.6155 0006190 218.6359 225.0344 15.50062753392995 CXO 1 25867U 99040B 23112.42851458 .00000730 00000-0 00000+0 0 9995 2 25867 38.1893 204.0110 9044177 256.5414 359.9006 0.37809964 24126 ...Continue Reading

[TLELIST] Current TLEs

April 21st 2023 PDT

HST 1 20580U 90037B 23110.80190485 .00006510 00000-0 35087-3 0 9994 2 20580 28.4691 289.7099 0002871 111.4560 269.3621 15.12796804612761 ISS (ZARYA) 1 25544U 98067A 23111.47001403 .00017360 00000-0 31065-3 0 9992 2 25544 51.6391 249.6155 0006190 218.6359 225.0344 15.50062753392995 CXO 1 25867U 99040B 23112.42851458 .00000730 00000-0 00000+0 0 9995 2 25867 38.1893 204.0110 9044177 256.5414 359.9006 0.37809964 24126 ...Continue Reading

[TLELIST] Current TLEs

April 20th 2023 PDT

HST 1 20580U 90037B 23110.23447678 .00006462 00000-0 34831-3 0 9992 2 20580 28.4691 293.4820 0002883 106.5893 57.8411 15.12789599612942 ISS (ZARYA) 1 25544U 98067A 23110.43007450 .00021693 00000-0 38641-3 0 9996 2 25544 51.6397 254.7694 0006141 215.2286 181.5841 15.50031843392831 CXO 1 25867U 99040B 23109.78535750 .00000756 00000-0 00000-0 0 9993 2 25867 38.2311 204.3839 9040923 256.2348 0.1021 0.37809690 12968 ...Continue Reading

[TLELIST] Current TLEs

April 19th 2023 PDT

HST 1 20580U 90037B 23108.91039937 .00007369 00000-0 39876-3 0 9990 2 20580 28.4691 302.2865 0002903 93.3893 45.7623 15.12773339612470 ISS (ZARYA) 1 25544U 98067A 23109.39970694 .00019424 00000-0 34748-3 0 9991 2 25544 51.6384 259.8731 0006437 211.4949 192.0399 15.49984871392670 CXO 1 25867U 99040B 23109.78535750 .00000756 00000-0 00000-0 0 9993 2 25867 38.2311 204.3839 9040923 256.2348 0.1021 0.37809690 12968 ...Continue Reading
  • This mailing list is a public mailing list - anyone may join or leave, at any time.
  • This mailing list is announce-only.

International Space Station (ISS) / Hubble Space Telescope (HST) / Chandra X-Ray Observatory Orbital Data via EMAIL

Privacy Policy:

Private list